Location: Unspecified
(0.0000°N, 0.0000°E)
Time: 10:29:52
(UTC+00:00)

Transit 2A Rocket - Pass Details

Date: 15 December 2018
Orbit: 586 x 918 km, 66.7° (Epoch: 17 January)

Event Time Altitude Azimuth Distance (km) Brightness Sun altitude
Rises 19:28:39 0° 316° (NW) 3,539 8.7 -21.3°
Reaches altitude 10° 19:31:39 10° 303° (WNW) 2,601 8.1 -22.0°
Maximum altitude 19:36:26 24° 251° (WSW) 1,775 7.6 -23.1°
Drops below altitude 10° 19:41:08 10° 198° (SSW) 2,541 8.2 -24.2°
Sets 19:44:03 0° 185° (S) 3,439 8.8 -24.8°
